This is the latest recevied weather packets stored in our database for station/object CE3TL-WX. If no packets are shown the sender has not sent any weather packets the latest 10 day(s).
| Time | Temp. | Humidity | Pressure | Rain* | Wind** | Luminosity | Snow |
|---|---|---|---|---|---|---|---|
| 1777318377 | 18.33° C | 32% | 1025.2 hPa | - | - | - | - |
| 1777317843 | 18.89° C | 29% | 1025.2 hPa | - | - | - | - |
| 1777317309 | 18.89° C | 32% | 1025.3 hPa | - | - | - | - |
| 1777316774 | 18.89° C | 31% | 1025.4 hPa | - | - | - | - |
| 1777316240 | 18.89° C | 33% | 1025.3 hPa | - | - | - | - |
| 1777315706 | 19.44° C | 32% | 1025.4 hPa | - | - | - | - |
| 1777315173 | 19.44° C | 31% | 1025.4 hPa | - | - | - | - |
| 1777314638 | 19.44° C | 34% | 1025.5 hPa | - | - | - | - |
| 1777314103 | 19.44° C | 32% | 1025.5 hPa | - | - | - | - |
| 1777313570 | 19.44° C | 32% | 1025.6 hPa | - | - | - | - |
| 1777313035 | 18.89° C | 35% | 1025.7 hPa | - | - | - | - |
| 1777312501 | 18.89° C | 35% | 1025.7 hPa | - | - | - | - |
| 1777311967 | 18.89° C | 32% | 1025.5 hPa | - | - | - | - |
| 1777311434 | 18.89° C | 35% | 1025.6 hPa | - | - | - | - |
| 1777310900 | 18.89° C | 33% | 1025.6 hPa | - | - | - | - |
| 1777310366 | 18.89° C | 31% | 1025.7 hPa | - | - | - | - |
| 1777309833 | 18.89° C | 33% | 1025.7 hPa | - | - | - | - |
| 1777309298 | 18.89° C | 32% | 1025.6 hPa | - | - | - | - |
| 1777308764 | 18.89° C | 33% | 1025.7 hPa | - | - | - | - |
| 1777308230 | 18.33° C | 34% | 1025.7 hPa | - | - | - | - |
| 1777307697 | 17.78° C | 33% | 1025.8 hPa | - | - | - | - |
| 1777307162 | 17.22° C | 37% | 1025.8 hPa | - | - | - | - |
| 1777306628 | 16.67° C | 36% | 1025.8 hPa | - | - | - | - |
| 1777306094 | 16.67° C | 35% | 1025.9 hPa | - | - | - | - |
| 1777305560 | 16.11° C | 40% | 1026.2 hPa | - | - | - | - |
* Rain since midnight (hover to see other rain measurements)
** Current wind speed in m/s (hover to see current wind gust speed)